Yankton, SD

10:07 PM CST on November 22, 2017 (GMT -0600)
Gurney Municipal

Weather History for KYKN - May, 2013

Change the Weather History Date:

Monday, May 20, 2013

  Actual Average Record
Temperature  
Mean Temperature 60 °F -  
Max Temperature 66 °F 75 °F 96 °F (1948)
Min Temperature 55 °F 48 °F 34 °F (1968)
Degree Days  
Heating Degree Days 4    
Growing Degree Days 10 (Base 50)    
Moisture  
Dew Point 53 °F    
Average Humidity 80    
Maximum Humidity 100    
Minimum Humidity 56    
Precipitation  
Precipitation 0.19 in - - ()
Sea Level Pressure  
Sea Level Pressure 29.53 in    
Wind  
Wind Speed 12 mph (WSW)    
Max Wind Speed 20 mph    
Max Gust Speed 24 mph    
Visibility 10 miles    
Events      
Averages and records for this station are not official NWS values.
T = Trace of Precipitation, MM = Missing Value Source: NWS Daily Summary

Daily Weather History Graph

Daily Weather History Graph

Search for Another Location

Airport or City:

Trip Planner

Search our weather history database for the weather conditions in past years. The results will help you decide how hot, cold, wet, or windy it might be!

Date:

Astronomy

May. 20, 2013 Rise Set
Actual Time 6:01 AM CDT 8:51 PM CDT
Civil Twilight 5:28 AM CDT 9:24 PM CDT
Nautical Twilight 4:46 AM CDT 10:06 PM CDT
Astronomical Twilight 3:57 AM CDT 10:55 PM CDT
Moon 3:53 PM CDT (5/20) 3:04 AM CDT (5/20)
Length of Visible Light 15h 56m
Length of Day
14h 49m
Waxing Gibbous, 75% of the Moon is Illuminated
May 20
Waxing Gibbous
May 24
Full
May 31
Last Quarter
Jun 8
New
Jun 16
First Quarter

Hourly Weather History & Observations

Time (CDT) Temp. Dew Point Humidity Pressure Visibility Wind Dir Wind Speed Gust Speed Precip Events Conditions
12:15 AM 57.2 °F 55.4 °F 94% 29.52 in 10.0 mi SSW 9.2 mph - N/A   Overcast
12:35 AM 57.2 °F 57.2 °F 100% 29.51 in 10.0 mi South 9.2 mph - 0.01 in   Overcast
12:55 AM 57.2 °F 55.4 °F 94% 29.50 in 10.0 mi SSW 6.9 mph - 0.01 in   Mostly Cloudy
1:15 AM 57.2 °F 55.4 °F 94% 29.51 in 10.0 mi SSW 11.5 mph - 0.01 in   Overcast
1:35 AM 57.2 °F 55.4 °F 94% 29.50 in 10.0 mi SSW 13.8 mph - 0.02 in   Overcast
1:55 AM 57.2 °F 57.2 °F 100% 29.51 in 7.0 mi SW 15.0 mph 19.6 mph 0.03 in   Overcast
2:15 AM 57.2 °F 57.2 °F 100% 29.51 in 6.0 mi SW 10.4 mph - 0.02 in   Overcast
2:35 AM 57.2 °F 55.4 °F 94% 29.52 in 8.0 mi West 13.8 mph - 0.02 in   Overcast
3:15 AM 55.4 °F 53.6 °F 94% 29.52 in 10.0 mi West 12.7 mph - 0.04 in   Overcast
3:35 AM 55.4 °F 53.6 °F 94% 29.50 in 10.0 mi WNW 15.0 mph 20.7 mph 0.12 in   Overcast
3:55 AM 55.4 °F 53.6 °F 94% 29.50 in 9.0 mi West 12.7 mph 19.6 mph 0.12 in   Overcast
4:15 AM 55.4 °F 53.6 °F 94% 29.52 in 10.0 mi West 11.5 mph - 0.01 in   Overcast
4:35 AM 55.4 °F 53.6 °F 94% 29.52 in 10.0 mi West 10.4 mph - 0.01 in   Overcast
4:55 AM 55.4 °F 53.6 °F 94% 29.51 in 10.0 mi WNW 12.7 mph - 0.01 in   Mostly Cloudy
5:15 AM 55.4 °F 53.6 °F 94% 29.50 in 10.0 mi West 11.5 mph - N/A   Mostly Cloudy
5:35 AM 55.4 °F 53.6 °F 94% 29.51 in 10.0 mi West 6.9 mph - N/A   Overcast
5:55 AM 55.4 °F 53.6 °F 94% 29.50 in 10.0 mi West 9.2 mph - N/A   Overcast
6:15 AM 55.4 °F 53.6 °F 94% 29.51 in 10.0 mi West 10.4 mph - N/A   Overcast
6:35 AM 55.4 °F 53.6 °F 94% 29.50 in 10.0 mi West 12.7 mph - N/A   Overcast
6:55 AM 55.4 °F 53.6 °F 94% 29.51 in 10.0 mi West 10.4 mph 16.1 mph N/A   Overcast
7:15 AM 55.4 °F 51.8 °F 88% 29.53 in 10.0 mi SW 9.2 mph - N/A   Mostly Cloudy
7:35 AM 55.4 °F 53.6 °F 94% 29.54 in 10.0 mi SW 10.4 mph - N/A   Scattered Clouds
7:55 AM 55.4 °F 53.6 °F 94% 29.54 in 10.0 mi WSW 10.4 mph - N/A   Mostly Cloudy
8:15 AM 57.2 °F 53.6 °F 88% 29.54 in 10.0 mi SW 8.1 mph - N/A   Scattered Clouds
8:35 AM 57.2 °F 53.6 °F 88% 29.54 in 10.0 mi SW 13.8 mph - N/A   Partly Cloudy
9:15 AM 59.0 °F 53.6 °F 82% 29.55 in 10.0 mi SW 15.0 mph 20.7 mph N/A   Overcast
9:35 AM 59.0 °F 53.6 °F 82% 29.55 in 10.0 mi WSW 12.7 mph - N/A   Overcast
10:35 AM 60.8 °F 53.6 °F 77% 29.54 in 10.0 mi SW 12.7 mph 23.0 mph N/A   Overcast
10:55 AM 60.8 °F 51.8 °F 72% 29.54 in 10.0 mi SW 12.7 mph 23.0 mph N/A   Overcast
11:15 AM 62.6 °F 53.6 °F 72% 29.54 in 10.0 mi SW 13.8 mph 19.6 mph N/A   Overcast
11:35 AM 62.6 °F 51.8 °F 68% 29.54 in 10.0 mi WSW 15.0 mph 21.9 mph N/A   Mostly Cloudy
11:55 AM 64.4 °F 53.6 °F 68% 29.54 in 10.0 mi WSW 17.3 mph 21.9 mph N/A   Mostly Cloudy
12:15 PM 64.4 °F 51.8 °F 64% 29.54 in 10.0 mi SW 13.8 mph - N/A   Mostly Cloudy
12:35 PM 64.4 °F 51.8 °F 64% 29.54 in 10.0 mi SW 13.8 mph - N/A   Mostly Cloudy
12:55 PM 64.4 °F 51.8 °F 64% 29.54 in 10.0 mi SSW 13.8 mph 18.4 mph N/A   Scattered Clouds
1:15 PM 66.2 °F 51.8 °F 60% 29.53 in 10.0 mi SW 19.6 mph 24.2 mph N/A   Scattered Clouds
1:55 PM 64.4 °F 50.0 °F 59% 29.54 in 10.0 mi SW 17.3 mph 23.0 mph N/A   Overcast
2:15 PM 64.4 °F 51.8 °F 64% 29.54 in 10.0 mi SW 13.8 mph - N/A   Overcast
2:35 PM 66.2 °F 51.8 °F 60% 29.53 in 10.0 mi SSW 13.8 mph - N/A   Mostly Cloudy
2:55 PM 64.4 °F 51.8 °F 64% 29.53 in 10.0 mi SSW 12.7 mph 20.7 mph N/A   Overcast
3:15 PM 66.2 °F 51.8 °F 60% 29.53 in 10.0 mi SSW 15.0 mph - N/A   Mostly Cloudy
3:35 PM 66.2 °F 51.8 °F 60% 29.53 in 10.0 mi SSW 15.0 mph 20.7 mph N/A   Overcast
3:55 PM 66.2 °F 50.0 °F 56% 29.52 in 10.0 mi SSW 15.0 mph 20.7 mph N/A   Overcast
4:15 PM 66.2 °F 50.0 °F 56% 29.52 in 10.0 mi SSW 17.3 mph - N/A   Overcast
4:35 PM 66.2 °F 51.8 °F 60% 29.52 in 10.0 mi SSW 12.7 mph 18.4 mph N/A   Overcast
4:55 PM 66.2 °F 51.8 °F 60% 29.52 in 10.0 mi SSW 12.7 mph - N/A   Overcast
5:15 PM 64.4 °F 50.0 °F 59% 29.52 in 10.0 mi West 11.5 mph - N/A   Overcast
5:35 PM 62.6 °F 51.8 °F 68% 29.52 in 10.0 mi WSW 6.9 mph - N/A   Overcast
5:55 PM 64.4 °F 51.8 °F 64% 29.51 in 10.0 mi SW 8.1 mph - N/A   Overcast
6:15 PM 64.4 °F 51.8 °F 64% 29.51 in 10.0 mi SW 6.9 mph - N/A   Overcast
6:35 PM 64.4 °F 51.8 °F 64% 29.50 in 10.0 mi SW 9.2 mph - N/A   Overcast
6:55 PM 66.2 °F 51.8 °F 60% 29.50 in 10.0 mi SW 16.1 mph 20.7 mph N/A   Overcast
7:15 PM 62.6 °F 53.6 °F 72% 29.51 in 10.0 mi WSW 13.8 mph - N/A   Overcast
7:35 PM 62.6 °F 53.6 °F 72% 29.51 in 10.0 mi WSW 11.5 mph - N/A   Mostly Cloudy
7:55 PM 60.8 °F 55.4 °F 82% 29.52 in 9.0 mi WSW 13.8 mph - N/A   Mostly Cloudy
8:15 PM 60.8 °F 55.4 °F 82% 29.52 in 10.0 mi West 12.7 mph - N/A   Overcast
8:35 PM 59.0 °F 55.4 °F 88% 29.53 in 10.0 mi West 13.8 mph 17.3 mph N/A   Overcast
9:15 PM 57.2 °F 55.4 °F 94% 29.53 in 10.0 mi West 13.8 mph - N/A   Overcast
9:35 PM 57.2 °F 53.6 °F 88% 29.54 in 10.0 mi West 12.7 mph - N/A   Mostly Cloudy
9:55 PM 57.2 °F 53.6 °F 88% 29.54 in 10.0 mi West 11.5 mph - N/A   Mostly Cloudy
10:15 PM 57.2 °F 53.6 °F 88% 29.55 in 10.0 mi West 16.1 mph 23.0 mph N/A   Overcast
10:35 PM 57.2 °F 53.6 °F 88% 29.55 in 10.0 mi West 13.8 mph - N/A   Overcast
10:55 PM 57.2 °F 51.8 °F 82% 29.55 in 10.0 mi West 10.4 mph - N/A   Overcast
11:15 PM 57.2 °F 53.6 °F 88% 29.56 in 10.0 mi West 11.5 mph - N/A   Overcast
11:35 PM 57.2 °F 51.8 °F 82% 29.56 in 10.0 mi West 13.8 mph - N/A   Overcast
11:55 PM 57.2 °F 51.8 °F 82% 29.56 in 10.0 mi West 12.7 mph - N/A   Mostly Cloudy